<?xml version='1.0' encoding='UTF-8'?>
<gpx xmlns="http://www.topografix.com/GPX/1/1" creator="www.balnam.be" version="1.1" xmlns:xsi="http://www.w3.org/2001/XMLSchema-instance" xsi:schemaLocation="http://www.topografix.com/GPX/1/1 http://www.topografix.com/GPX/1/1/gpx.xsd">
<trk>
<name>hlvrv10</name>
<cmt>r</cmt>
<desc>Rèves Chemin n°10 Chemin du Chenois / Chemin des Hayettes</desc>
<link href="https://chemins.be/reves/chemin/10"/><trkseg>
<trkpt lat="50.543815" lon="4.395328"><time>2026-05-02T19:54:43Z</time></trkpt>
<trkpt lat="50.540741" lon="4.394762"><time>2026-05-02T20:04:43Z</time></trkpt>
<trkpt lat="50.539419" lon="4.394479"><time>2026-05-02T20:14:43Z</time></trkpt>
</trkseg></trk>
<trk>
<name>hlvrv10</name>
<cmt>q</cmt>
<desc>Rèves Chemin n°10 Chemin du Chenois / Chemin des Hayettes</desc>
<link href="https://chemins.be/reves/chemin/10"/><trkseg>
<trkpt lat="50.539419" lon="4.394479"><time>2026-05-02T20:14:43Z</time></trkpt>
<trkpt lat="50.538044" lon="4.395000"><time>2026-05-02T20:24:43Z</time></trkpt>
<trkpt lat="50.536192" lon="4.395140"><time>2026-05-02T20:34:43Z</time></trkpt>
<trkpt lat="50.534106" lon="4.394053"><time>2026-05-02T20:44:43Z</time></trkpt>
<trkpt lat="50.532263" lon="4.393840"><time>2026-05-02T20:54:43Z</time></trkpt>
</trkseg></trk>
<trk>
<name>hlvrv10</name>
<cmt>r</cmt>
<desc>Rèves Chemin n°10 Chemin du Chenois / Chemin des Hayettes</desc>
<link href="https://chemins.be/reves/chemin/10"/><trkseg>
<trkpt lat="50.532263" lon="4.393840"><time>2026-05-02T20:54:43Z</time></trkpt>
<trkpt lat="50.530510" lon="4.394939"><time>2026-05-02T21:04:43Z</time></trkpt>
<trkpt lat="50.529467" lon="4.396547"><time>2026-05-02T21:14:43Z</time></trkpt>
</trkseg>
</trk>
<trk>
<name>hlvrv11</name>
<cmt>v</cmt>
<desc>Rèves Chemin n°11 </desc>
<link href="https://chemins.be/reves/chemin/11"/><trkseg>
<trkpt lat="50.541534" lon="4.402007"><time>2026-05-02T19:54:43Z</time></trkpt>
<trkpt lat="50.541668" lon="4.400965"><time>2026-05-02T20:04:43Z</time></trkpt>
<trkpt lat="50.543031" lon="4.398977"><time>2026-05-02T20:14:43Z</time></trkpt>
<trkpt lat="50.543802" lon="4.395277"><time>2026-05-02T20:24:43Z</time></trkpt>
</trkseg></trk>
<trk>
<name>hlvrv11</name>
<cmt>r</cmt>
<desc>Rèves Chemin n°11 </desc>
<link href="https://chemins.be/reves/chemin/11"/><trkseg>
<trkpt lat="50.543802" lon="4.395277"><time>2026-05-02T20:24:43Z</time></trkpt>
<trkpt lat="50.544613" lon="4.394499"><time>2026-05-02T20:34:43Z</time></trkpt>
<trkpt lat="50.546684" lon="4.391308"><time>2026-05-02T20:44:43Z</time></trkpt>
<trkpt lat="50.549535" lon="4.386696"><time>2026-05-02T20:54:43Z</time></trkpt>
<trkpt lat="50.550848" lon="4.383437"><time>2026-05-02T21:04:43Z</time></trkpt>
<trkpt lat="50.552493" lon="4.380467"><time>2026-05-02T21:14:43Z</time></trkpt>
</trkseg>
</trk>
<trk>
<name>hlvrv15</name>
<cmt>r</cmt>
<desc>Rèves Chemin n°15 Rue Bati Notre Dame / Les-Bons-Villers - Pont-à-Celles</desc>
<link href="https://chemins.be/reves/chemin/15"/><trkseg>
<trkpt lat="50.523235" lon="4.400816"><time>2026-05-02T19:54:43Z</time></trkpt>
<trkpt lat="50.523496" lon="4.401563"><time>2026-05-02T20:04:43Z</time></trkpt>
<trkpt lat="50.523496" lon="4.402353"><time>2026-05-02T20:14:43Z</time></trkpt>
<trkpt lat="50.523855" lon="4.403355"><time>2026-05-02T20:24:43Z</time></trkpt>
<trkpt lat="50.524619" lon="4.404794"><time>2026-05-02T20:34:43Z</time></trkpt>
</trkseg>
</trk>
<trk>
<name>hlvrv16</name>
<cmt>v</cmt>
<desc>Rèves Chemin n°16 </desc>
<link href="https://chemins.be/reves/chemin/16"/><trkseg>
<trkpt lat="50.542293" lon="4.418535"><time>2026-05-02T19:54:43Z</time></trkpt>
<trkpt lat="50.542321" lon="4.418473"><time>2026-05-02T20:04:43Z</time></trkpt>
<trkpt lat="50.542621" lon="4.418223"><time>2026-05-02T20:14:43Z</time></trkpt>
<trkpt lat="50.543631" lon="4.418183"><time>2026-05-02T20:24:43Z</time></trkpt>
<trkpt lat="50.544351" lon="4.418513"><time>2026-05-02T20:34:43Z</time></trkpt>
<trkpt lat="50.544841" lon="4.418963"><time>2026-05-02T20:44:43Z</time></trkpt>
<trkpt lat="50.548191" lon="4.419013"><time>2026-05-02T20:54:43Z</time></trkpt>
<trkpt lat="50.549301" lon="4.419083"><time>2026-05-02T21:04:43Z</time></trkpt>
</trkseg>
</trk>
<trk>
<name>hlvrv17</name>
<cmt>v</cmt>
<desc>Rèves Chemin n°17 </desc>
<link href="https://chemins.be/reves/chemin/17"/><trkseg>
<trkpt lat="50.542359" lon="4.420707"><time>2026-05-02T19:54:43Z</time></trkpt>
<trkpt lat="50.542872" lon="4.419918"><time>2026-05-02T20:04:43Z</time></trkpt>
<trkpt lat="50.544311" lon="4.418551"><time>2026-05-02T20:14:43Z</time></trkpt>
</trkseg>
</trk>
<trk>
<name>hlvrv2</name>
<cmt>q</cmt>
<desc>Rèves Chemin n°2 </desc>
<link href="https://chemins.be/reves/chemin/2"/><trkseg>
<trkpt lat="50.551980" lon="4.386626"><time>2026-05-02T19:54:43Z</time></trkpt>
<trkpt lat="50.552277" lon="4.383900"><time>2026-05-02T20:04:43Z</time></trkpt>
</trkseg></trk>
<trk>
<name>hlvrv2</name>
<cmt>s</cmt>
<desc>Rèves Chemin n°2 </desc>
<link href="https://chemins.be/reves/chemin/2"/><trkseg>
<trkpt lat="50.552277" lon="4.383900"><time>2026-05-02T20:04:43Z</time></trkpt>
<trkpt lat="50.552484" lon="4.380488"><time>2026-05-02T20:14:43Z</time></trkpt>
<trkpt lat="50.554085" lon="4.376692"><time>2026-05-02T20:24:43Z</time></trkpt>
<trkpt lat="50.555164" lon="4.373743"><time>2026-05-02T20:34:43Z</time></trkpt>
</trkseg></trk>
<trk>
<name>hlvrv2</name>
<cmt>r</cmt>
<desc>Rèves Chemin n°2 </desc>
<link href="https://chemins.be/reves/chemin/2"/><trkseg>
<trkpt lat="50.555164" lon="4.373743"><time>2026-05-02T20:34:43Z</time></trkpt>
<trkpt lat="50.555326" lon="4.373122"><time>2026-05-02T20:44:43Z</time></trkpt>
</trkseg>
</trk>
<trk>
<name>hlvrv20</name>
<cmt>v</cmt>
<desc>Rèves Chemin n°20 </desc>
<link href="https://chemins.be/reves/chemin/20"/><trkseg>
<trkpt lat="50.527407" lon="4.401383"><time>2026-05-02T19:54:43Z</time></trkpt>
<trkpt lat="50.527622" lon="4.403047"><time>2026-05-02T20:04:43Z</time></trkpt>
<trkpt lat="50.527478" lon="4.404105"><time>2026-05-02T20:14:43Z</time></trkpt>
</trkseg>
</trk>
<trk>
<name>hlvrv21</name>
<cmt>v</cmt>
<desc>Rèves Chemin n°21 </desc>
<link href="https://chemins.be/reves/chemin/21"/><trkseg>
<trkpt lat="50.523936" lon="4.403425"><time>2026-05-02T19:54:43Z</time></trkpt>
<trkpt lat="50.525303" lon="4.402072"><time>2026-05-02T20:04:43Z</time></trkpt>
</trkseg>
</trk>
<trk>
<name>hlvrv23</name>
<cmt>s</cmt>
<desc>Rèves Chemin n°23 </desc>
<link href="https://chemins.be/reves/chemin/23"/><trkseg>
<trkpt lat="50.526321" lon="4.392709"><time>2026-05-02T19:54:43Z</time></trkpt>
<trkpt lat="50.526806" lon="4.392667"><time>2026-05-02T20:04:43Z</time></trkpt>
<trkpt lat="50.528101" lon="4.393485"><time>2026-05-02T20:14:43Z</time></trkpt>
<trkpt lat="50.528865" lon="4.393598"><time>2026-05-02T20:24:43Z</time></trkpt>
</trkseg>
</trk>
<trk>
<name>hlvrv28</name>
<cmt>q</cmt>
<desc>Rèves Chemin n°28 </desc>
<link href="https://chemins.be/reves/chemin/28"/><trkseg>
<trkpt lat="50.551467" lon="4.387698"><time>2026-05-02T19:54:43Z</time></trkpt>
<trkpt lat="50.549409" lon="4.388389"><time>2026-05-02T20:04:43Z</time></trkpt>
<trkpt lat="50.548465" lon="4.388431"><time>2026-05-02T20:14:43Z</time></trkpt>
</trkseg>
</trk>
<trk>
<name>hlvrv29</name>
<cmt>r</cmt>
<desc>Rèves Chemin n°29 Chemin des Hayettes</desc>
<link href="https://chemins.be/reves/chemin/29"/><trkseg>
<trkpt lat="50.532353" lon="4.393586"><time>2026-05-02T19:54:43Z</time></trkpt>
<trkpt lat="50.534385" lon="4.391133"><time>2026-05-02T20:04:43Z</time></trkpt>
<trkpt lat="50.535447" lon="4.389060"><time>2026-05-02T20:14:43Z</time></trkpt>
<trkpt lat="50.536213" lon="4.388180"><time>2026-05-02T20:24:43Z</time></trkpt>
</trkseg></trk>
<trk>
<name>hlvrv29</name>
<cmt>q</cmt>
<desc>Rèves Chemin n°29 Chemin des Hayettes</desc>
<link href="https://chemins.be/reves/chemin/29"/><trkseg>
<trkpt lat="50.536213" lon="4.388180"><time>2026-05-02T20:24:43Z</time></trkpt>
<trkpt lat="50.536554" lon="4.384711"><time>2026-05-02T20:34:43Z</time></trkpt>
</trkseg>
</trk>
<trk>
<name>hlvrv30</name>
<cmt>q</cmt>
<desc>Rèves Chemin n°30 </desc>
<link href="https://chemins.be/reves/chemin/30"/><trkseg>
<trkpt lat="50.559351" lon="4.377167"><time>2026-05-02T19:54:43Z</time></trkpt>
<trkpt lat="50.558165" lon="4.378658"><time>2026-05-02T20:04:43Z</time></trkpt>
<trkpt lat="50.557893" lon="4.378663"><time>2026-05-02T20:14:43Z</time></trkpt>
</trkseg></trk>
<trk>
<name>hlvrv30</name>
<cmt>v</cmt>
<desc>Rèves Chemin n°30 </desc>
<link href="https://chemins.be/reves/chemin/30"/><trkseg>
<trkpt lat="50.557893" lon="4.378663"><time>2026-05-02T20:14:43Z</time></trkpt>
<trkpt lat="50.557591" lon="4.378231"><time>2026-05-02T20:24:43Z</time></trkpt>
<trkpt lat="50.556108" lon="4.375578"><time>2026-05-02T20:34:43Z</time></trkpt>
<trkpt lat="50.555263" lon="4.375084"><time>2026-05-02T20:44:43Z</time></trkpt>
<trkpt lat="50.554741" lon="4.375084"><time>2026-05-02T20:54:43Z</time></trkpt>
</trkseg>
</trk>
<trk>
<name>hlvrv31</name>
<cmt>s</cmt>
<desc>Rèves Chemin n°31 </desc>
<link href="https://chemins.be/reves/chemin/31"/><trkseg>
<trkpt lat="50.555756" lon="4.418027"><time>2026-05-02T19:54:43Z</time></trkpt>
<trkpt lat="50.557446" lon="4.417873"><time>2026-05-02T20:04:43Z</time></trkpt>
<trkpt lat="50.558472" lon="4.415955"><time>2026-05-02T20:14:43Z</time></trkpt>
<trkpt lat="50.558418" lon="4.413669"><time>2026-05-02T20:24:43Z</time></trkpt>
</trkseg></trk>
<trk>
<name>hlvrv31</name>
<cmt>r</cmt>
<desc>Rèves Chemin n°31 </desc>
<link href="https://chemins.be/reves/chemin/31"/><trkseg>
<trkpt lat="50.558418" lon="4.413669"><time>2026-05-02T20:24:43Z</time></trkpt>
<trkpt lat="50.558392" lon="4.411792"><time>2026-05-02T20:34:43Z</time></trkpt>
<trkpt lat="50.558502" lon="4.407826"><time>2026-05-02T20:44:43Z</time></trkpt>
</trkseg></trk>
<trk>
<name>hlvrv31</name>
<cmt>v</cmt>
<desc>Rèves Chemin n°31 </desc>
<link href="https://chemins.be/reves/chemin/31"/><trkseg>
<trkpt lat="50.558502" lon="4.407826"><time>2026-05-02T20:44:43Z</time></trkpt>
<trkpt lat="50.558637" lon="4.405780"><time>2026-05-02T20:54:43Z</time></trkpt>
<trkpt lat="50.559006" lon="4.404185"><time>2026-05-02T21:04:43Z</time></trkpt>
</trkseg></trk>
<trk>
<name>hlvrv31</name>
<cmt>q</cmt>
<desc>Rèves Chemin n°31 </desc>
<link href="https://chemins.be/reves/chemin/31"/><trkseg>
<trkpt lat="50.559006" lon="4.404185"><time>2026-05-02T21:04:43Z</time></trkpt>
<trkpt lat="50.558072" lon="4.401009"><time>2026-05-02T21:14:43Z</time></trkpt>
<trkpt lat="50.556320" lon="4.398143"><time>2026-05-02T21:24:43Z</time></trkpt>
</trkseg></trk>
<trk>
<name>hlvrv31</name>
<cmt>v</cmt>
<desc>Rèves Chemin n°31 </desc>
<link href="https://chemins.be/reves/chemin/31"/><trkseg>
<trkpt lat="50.556320" lon="4.398143"><time>2026-05-02T21:24:43Z</time></trkpt>
<trkpt lat="50.554810" lon="4.395320"><time>2026-05-02T21:34:43Z</time></trkpt>
<trkpt lat="50.553651" lon="4.393654"><time>2026-05-02T21:44:43Z</time></trkpt>
</trkseg>
</trk>
<trk>
<name>hlvrv34</name>
<cmt>r</cmt>
<desc>Rèves Chemin n°34 Ruelle du Coucou</desc>
<link href="https://chemins.be/reves/chemin/34"/><trkseg>
<trkpt lat="50.548957" lon="4.396713"><time>2026-05-02T19:54:43Z</time></trkpt>
<trkpt lat="50.549478" lon="4.397814"><time>2026-05-02T20:04:43Z</time></trkpt>
</trkseg>
</trk>
<trk>
<name>hlvrv36</name>
<cmt>s</cmt>
<desc>Rèves Chemin n°36 </desc>
<link href="https://chemins.be/reves/chemin/36"/><trkseg>
<trkpt lat="50.529682" lon="4.426966"><time>2026-05-02T19:54:43Z</time></trkpt>
<trkpt lat="50.528418" lon="4.426873"><time>2026-05-02T20:04:43Z</time></trkpt>
</trkseg>
</trk>
<trk>
<name>hlvrv37</name>
<cmt>r</cmt>
<desc>Rèves Chemin n°37 </desc>
<link href="https://chemins.be/reves/chemin/37"/><trkseg>
<trkpt lat="50.546621" lon="4.391195"><time>2026-05-02T19:54:43Z</time></trkpt>
<trkpt lat="50.546441" lon="4.390532"><time>2026-05-02T20:04:43Z</time></trkpt>
<trkpt lat="50.545921" lon="4.387329"><time>2026-05-02T20:14:43Z</time></trkpt>
<trkpt lat="50.545453" lon="4.385918"><time>2026-05-02T20:24:43Z</time></trkpt>
</trkseg>
</trk>
<trk>
<name>hlvrv38</name>
<cmt>v</cmt>
<desc>Rèves Chemin n°38 Rue de la Cure</desc>
<link href="https://chemins.be/reves/chemin/38"/><trkseg>
<trkpt lat="50.538639" lon="4.416076"><time>2026-05-02T19:54:43Z</time></trkpt>
<trkpt lat="50.538469" lon="4.415737"><time>2026-05-02T20:04:43Z</time></trkpt>
<trkpt lat="50.538685" lon="4.415216"><time>2026-05-02T20:14:43Z</time></trkpt>
</trkseg>
</trk>
<trk>
<name>hlvrv39</name>
<cmt>r</cmt>
<desc>Rèves Chemin n°39 Impasse Lannois</desc>
<link href="https://chemins.be/reves/chemin/39"/><trkseg>
<trkpt lat="50.529276" lon="4.397088"><time>2026-05-02T19:54:43Z</time></trkpt>
<trkpt lat="50.530017" lon="4.396788"><time>2026-05-02T20:04:43Z</time></trkpt>
<trkpt lat="50.530456" lon="4.397069"><time>2026-05-02T20:14:43Z</time></trkpt>
</trkseg></trk>
<trk>
<name>hlvrv39</name>
<cmt>v</cmt>
<desc>Rèves Chemin n°39 Impasse Lannois</desc>
<link href="https://chemins.be/reves/chemin/39"/><trkseg>
<trkpt lat="50.530456" lon="4.397069"><time>2026-05-02T20:14:43Z</time></trkpt>
<trkpt lat="50.530627" lon="4.397197"><time>2026-05-02T20:24:43Z</time></trkpt>
</trkseg>
</trk>
<trk>
<name>hlvrv4</name>
<cmt>r</cmt>
<desc>Rèves Chemin n°4 </desc>
<link href="https://chemins.be/reves/chemin/4"/><trkseg>
<trkpt lat="50.533004" lon="4.418830"><time>2026-05-02T19:54:43Z</time></trkpt>
<trkpt lat="50.532506" lon="4.418057"><time>2026-05-02T20:04:43Z</time></trkpt>
<trkpt lat="50.532090" lon="4.416912"><time>2026-05-02T20:14:43Z</time></trkpt>
</trkseg></trk>
<trk>
<name>hlvrv4</name>
<cmt>v</cmt>
<desc>Rèves Chemin n°4 </desc>
<link href="https://chemins.be/reves/chemin/4"/><trkseg>
<trkpt lat="50.532090" lon="4.416912"><time>2026-05-02T20:14:43Z</time></trkpt>
<trkpt lat="50.530767" lon="4.418221"><time>2026-05-02T20:24:43Z</time></trkpt>
</trkseg>
</trk>
<trk>
<name>hlvrv41</name>
<cmt>q</cmt>
<desc>Rèves Sentier n°41 </desc>
<link href="https://chemins.be/reves/sentier/41"/><trkseg>
<trkpt lat="50.550478" lon="4.391508"><time>2026-05-02T19:54:43Z</time></trkpt>
<trkpt lat="50.551080" lon="4.392213"><time>2026-05-02T20:04:43Z</time></trkpt>
<trkpt lat="50.551233" lon="4.392199"><time>2026-05-02T20:14:43Z</time></trkpt>
<trkpt lat="50.552096" lon="4.393244"><time>2026-05-02T20:24:43Z</time></trkpt>
<trkpt lat="50.552446" lon="4.393202"><time>2026-05-02T20:34:43Z</time></trkpt>
<trkpt lat="50.552536" lon="4.393724"><time>2026-05-02T20:44:43Z</time></trkpt>
</trkseg>
</trk>
<trk>
<name>hlvrv42</name>
<cmt>v</cmt>
<desc>Rèves Sentier n°42 Rue de Bruxelles</desc>
<link href="https://chemins.be/reves/sentier/42"/><trkseg>
<trkpt lat="50.546997" lon="4.399069"><time>2026-05-02T19:54:43Z</time></trkpt>
<trkpt lat="50.547689" lon="4.400155"><time>2026-05-02T20:04:43Z</time></trkpt>
<trkpt lat="50.548156" lon="4.401539"><time>2026-05-02T20:14:43Z</time></trkpt>
<trkpt lat="50.549809" lon="4.405378"><time>2026-05-02T20:24:43Z</time></trkpt>
</trkseg>
</trk>
<trk>
<name>hlvrv44</name>
<cmt>q</cmt>
<desc>Rèves Sentier n°44 </desc>
<link href="https://chemins.be/reves/sentier/44"/><trkseg>
<trkpt lat="50.548435" lon="4.399422"><time>2026-05-02T19:54:43Z</time></trkpt>
<trkpt lat="50.549307" lon="4.400890"><time>2026-05-02T20:04:43Z</time></trkpt>
<trkpt lat="50.549999" lon="4.402288"><time>2026-05-02T20:14:43Z</time></trkpt>
<trkpt lat="50.551418" lon="4.404970"><time>2026-05-02T20:24:43Z</time></trkpt>
<trkpt lat="50.553342" lon="4.405832"><time>2026-05-02T20:34:43Z</time></trkpt>
</trkseg>
</trk>
<trk>
<name>hlvrv45</name>
<cmt>q</cmt>
<desc>Rèves Sentier n°45 </desc>
<link href="https://chemins.be/reves/sentier/45"/><trkseg>
<trkpt lat="50.547718" lon="4.400266"><time>2026-05-02T19:54:43Z</time></trkpt>
<trkpt lat="50.549304" lon="4.400905"><time>2026-05-02T20:04:43Z</time></trkpt>
</trkseg>
</trk>
<trk>
<name>hlvrv46</name>
<cmt>q</cmt>
<desc>Rèves Sentier n°46 </desc>
<link href="https://chemins.be/reves/sentier/46"/><trkseg>
<trkpt lat="50.546231" lon="4.401322"><time>2026-05-02T19:54:43Z</time></trkpt>
<trkpt lat="50.547761" lon="4.400252"><time>2026-05-02T20:04:43Z</time></trkpt>
</trkseg></trk>
<trk>
<name>hlvrv46</name>
<cmt>v</cmt>
<desc>Rèves Sentier n°46 </desc>
<link href="https://chemins.be/reves/sentier/46"/><trkseg>
<trkpt lat="50.547761" lon="4.400252"><time>2026-05-02T20:04:43Z</time></trkpt>
<trkpt lat="50.547761" lon="4.400252"><time>2026-05-02T20:14:43Z</time></trkpt>
<trkpt lat="50.548701" lon="4.399052"><time>2026-05-02T20:24:43Z</time></trkpt>
<trkpt lat="50.548711" lon="4.399042"><time>2026-05-02T20:34:43Z</time></trkpt>
<trkpt lat="50.549461" lon="4.397732"><time>2026-05-02T20:44:43Z</time></trkpt>
<trkpt lat="50.549831" lon="4.397592"><time>2026-05-02T20:54:43Z</time></trkpt>
<trkpt lat="50.549831" lon="4.397592"><time>2026-05-02T21:04:43Z</time></trkpt>
<trkpt lat="50.550221" lon="4.397242"><time>2026-05-02T21:14:43Z</time></trkpt>
</trkseg></trk>
<trk>
<name>hlvrv46</name>
<cmt>q</cmt>
<desc>Rèves Sentier n°46 </desc>
<link href="https://chemins.be/reves/sentier/46"/><trkseg>
<trkpt lat="50.550221" lon="4.397242"><time>2026-05-02T21:14:43Z</time></trkpt>
<trkpt lat="50.550801" lon="4.396772"><time>2026-05-02T21:24:43Z</time></trkpt>
<trkpt lat="50.552641" lon="4.395302"><time>2026-05-02T21:34:43Z</time></trkpt>
<trkpt lat="50.553341" lon="4.393482"><time>2026-05-02T21:44:43Z</time></trkpt>
</trkseg>
</trk>
<trk>
<name>hlvrv47</name>
<cmt>q</cmt>
<desc>Rèves Sentier n°47 </desc>
<link href="https://chemins.be/reves/sentier/47"/><trkseg>
<trkpt lat="50.548430" lon="4.397256"><time>2026-05-02T19:54:43Z</time></trkpt>
<trkpt lat="50.549101" lon="4.398322"><time>2026-05-02T20:04:43Z</time></trkpt>
</trkseg>
</trk>
<trk>
<name>hlvrv48</name>
<cmt>v</cmt>
<desc>Rèves Sentier n°48 Ruelle du Grand Car</desc>
<link href="https://chemins.be/reves/sentier/48"/><trkseg>
<trkpt lat="50.548597" lon="4.399055"><time>2026-05-02T19:54:43Z</time></trkpt>
<trkpt lat="50.548211" lon="4.398576"><time>2026-05-02T20:04:43Z</time></trkpt>
</trkseg></trk>
<trk>
<name>hlvrv48</name>
<cmt>b</cmt>
<desc>Rèves Sentier n°48 Ruelle du Grand Car</desc>
<link href="https://chemins.be/reves/sentier/48"/><trkseg>
<trkpt lat="50.548211" lon="4.398576"><time>2026-05-02T20:04:43Z</time></trkpt>
<trkpt lat="50.547905" lon="4.398307"><time>2026-05-02T20:14:43Z</time></trkpt>
</trkseg>
</trk>
<trk>
<name>hlvrv49</name>
<cmt>r</cmt>
<desc>Rèves Sentier n°49 Ruelle Lenoir</desc>
<link href="https://chemins.be/reves/sentier/49"/><trkseg>
<trkpt lat="50.549380" lon="4.396389"><time>2026-05-02T19:54:43Z</time></trkpt>
<trkpt lat="50.549667" lon="4.397067"><time>2026-05-02T20:04:43Z</time></trkpt>
</trkseg></trk>
<trk>
<name>hlvrv49</name>
<cmt>v</cmt>
<desc>Rèves Sentier n°49 Ruelle Lenoir</desc>
<link href="https://chemins.be/reves/sentier/49"/><trkseg>
<trkpt lat="50.549667" lon="4.397067"><time>2026-05-02T20:04:43Z</time></trkpt>
<trkpt lat="50.549838" lon="4.397575"><time>2026-05-02T20:14:43Z</time></trkpt>
<trkpt lat="50.550215" lon="4.398661"><time>2026-05-02T20:24:43Z</time></trkpt>
</trkseg>
</trk>
<trk>
<name>hlvrv5</name>
<cmt>v</cmt>
<desc>Rèves Chemin n°5 Rue de la Station</desc>
<link href="https://chemins.be/reves/chemin/5"/><trkseg>
<trkpt lat="50.550251" lon="4.398732"><time>2026-05-02T19:54:43Z</time></trkpt>
<trkpt lat="50.549955" lon="4.399339"><time>2026-05-02T20:04:43Z</time></trkpt>
<trkpt lat="50.549909" lon="4.401526"><time>2026-05-02T20:14:43Z</time></trkpt>
<trkpt lat="50.550007" lon="4.402993"><time>2026-05-02T20:24:43Z</time></trkpt>
<trkpt lat="50.549854" lon="4.405095"><time>2026-05-02T20:34:43Z</time></trkpt>
<trkpt lat="50.550033" lon="4.407565"><time>2026-05-02T20:44:43Z</time></trkpt>
</trkseg></trk>
<trk>
<name>hlvrv5</name>
<cmt>r</cmt>
<desc>Rèves Chemin n°5 Rue de la Station</desc>
<link href="https://chemins.be/reves/chemin/5"/><trkseg>
<trkpt lat="50.550033" lon="4.407565"><time>2026-05-02T20:44:43Z</time></trkpt>
<trkpt lat="50.549943" lon="4.408736"><time>2026-05-02T20:54:43Z</time></trkpt>
<trkpt lat="50.549538" lon="4.410189"><time>2026-05-02T21:04:43Z</time></trkpt>
<trkpt lat="50.549483" lon="4.411769"><time>2026-05-02T21:14:43Z</time></trkpt>
</trkseg>
</trk>
<trk>
<name>hlvrv50</name>
<cmt>q</cmt>
<desc>Rèves Sentier n°50 </desc>
<link href="https://chemins.be/reves/sentier/50"/><trkseg>
<trkpt lat="50.549910" lon="4.397518"><time>2026-05-02T19:54:43Z</time></trkpt>
<trkpt lat="50.550593" lon="4.397603"><time>2026-05-02T20:04:43Z</time></trkpt>
<trkpt lat="50.555906" lon="4.400161"><time>2026-05-02T20:14:43Z</time></trkpt>
<trkpt lat="50.557955" lon="4.401066"><time>2026-05-02T20:24:43Z</time></trkpt>
<trkpt lat="50.559879" lon="4.401886"><time>2026-05-02T20:34:43Z</time></trkpt>
<trkpt lat="50.561173" lon="4.402239"><time>2026-05-02T20:44:43Z</time></trkpt>
<trkpt lat="50.562693" lon="4.402607"><time>2026-05-02T20:54:43Z</time></trkpt>
</trkseg>
</trk>
<trk>
<name>hlvrv53</name>
<cmt>q</cmt>
<desc>Rèves Sentier n°53 </desc>
<link href="https://chemins.be/reves/sentier/53"/><trkseg>
<trkpt lat="50.550215" lon="4.391957"><time>2026-05-02T19:54:43Z</time></trkpt>
<trkpt lat="50.549779" lon="4.390519"><time>2026-05-02T20:04:43Z</time></trkpt>
<trkpt lat="50.547795" lon="4.389500"><time>2026-05-02T20:14:43Z</time></trkpt>
</trkseg>
</trk>
<trk>
<name>hlvrv54</name>
<cmt>q</cmt>
<desc>Rèves Sentier n°54 </desc>
<link href="https://chemins.be/reves/sentier/54"/><trkseg>
<trkpt lat="50.554901" lon="4.419070"><time>2026-05-02T19:54:43Z</time></trkpt>
<trkpt lat="50.555619" lon="4.420962"><time>2026-05-02T20:04:43Z</time></trkpt>
</trkseg>
</trk>
<trk>
<name>hlvrv55</name>
<cmt>q</cmt>
<desc>Rèves Sentier n°55 </desc>
<link href="https://chemins.be/reves/sentier/55"/><trkseg>
<trkpt lat="50.546972" lon="4.396374"><time>2026-05-02T19:54:43Z</time></trkpt>
<trkpt lat="50.546192" lon="4.394406"><time>2026-05-02T20:04:43Z</time></trkpt>
<trkpt lat="50.546355" lon="4.393209"><time>2026-05-02T20:14:43Z</time></trkpt>
<trkpt lat="50.546659" lon="4.391385"><time>2026-05-02T20:24:43Z</time></trkpt>
</trkseg>
</trk>
<trk>
<name>hlvrv56</name>
<cmt>q</cmt>
<desc>Rèves Sentier n°56 </desc>
<link href="https://chemins.be/reves/sentier/56"/><trkseg>
<trkpt lat="50.546683" lon="4.391388"><time>2026-05-02T19:54:43Z</time></trkpt>
<trkpt lat="50.547270" lon="4.393116"><time>2026-05-02T20:04:43Z</time></trkpt>
</trkseg>
</trk>
<trk>
<name>hlvrv57</name>
<cmt>q</cmt>
<desc>Rèves Sentier n°57 </desc>
<link href="https://chemins.be/reves/sentier/57"/><trkseg>
<trkpt lat="50.545999" lon="4.397086"><time>2026-05-02T19:54:43Z</time></trkpt>
<trkpt lat="50.545267" lon="4.399139"><time>2026-05-02T20:04:43Z</time></trkpt>
<trkpt lat="50.544718" lon="4.399589"><time>2026-05-02T20:14:43Z</time></trkpt>
<trkpt lat="50.543144" lon="4.400377"><time>2026-05-02T20:24:43Z</time></trkpt>
<trkpt lat="50.542452" lon="4.401268"><time>2026-05-02T20:34:43Z</time></trkpt>
<trkpt lat="50.541726" lon="4.402501"><time>2026-05-02T20:44:43Z</time></trkpt>
<trkpt lat="50.541731" lon="4.403416"><time>2026-05-02T20:54:43Z</time></trkpt>
<trkpt lat="50.541531" lon="4.404933"><time>2026-05-02T21:04:43Z</time></trkpt>
</trkseg>
</trk>
<trk>
<name>hlvrv58</name>
<cmt>q</cmt>
<desc>Rèves Sentier n°58 </desc>
<link href="https://chemins.be/reves/sentier/58"/><trkseg>
<trkpt lat="50.544712" lon="4.403885"><time>2026-05-02T19:54:43Z</time></trkpt>
<trkpt lat="50.544924" lon="4.400849"><time>2026-05-02T20:04:43Z</time></trkpt>
<trkpt lat="50.545224" lon="4.399293"><time>2026-05-02T20:14:43Z</time></trkpt>
</trkseg>
</trk>
<trk>
<name>hlvrv59</name>
<cmt>q</cmt>
<desc>Rèves Sentier n°59 </desc>
<link href="https://chemins.be/reves/sentier/59"/><trkseg>
<trkpt lat="50.557832" lon="4.390538"><time>2026-05-02T19:54:43Z</time></trkpt>
<trkpt lat="50.558839" lon="4.388915"><time>2026-05-02T20:04:43Z</time></trkpt>
<trkpt lat="50.561249" lon="4.385896"><time>2026-05-02T20:14:43Z</time></trkpt>
</trkseg></trk>
<trk>
<name>hlvrv59</name>
<cmt>v</cmt>
<desc>Rèves Sentier n°59 </desc>
<link href="https://chemins.be/reves/sentier/59"/><trkseg>
<trkpt lat="50.561249" lon="4.385896"><time>2026-05-02T20:14:43Z</time></trkpt>
<trkpt lat="50.563641" lon="4.382043"><time>2026-05-02T20:24:43Z</time></trkpt>
</trkseg>
</trk>
<trk>
<name>hlvrv6</name>
<cmt>v</cmt>
<desc>Rèves Chemin n°6 Rue Wattimez Haut / Chemin de Fontaine-l'Evêque / Rue Luthéal</desc>
<link href="https://chemins.be/reves/chemin/6"/><trkseg>
<trkpt lat="50.559458" lon="4.421855"><time>2026-05-02T19:54:43Z</time></trkpt>
<trkpt lat="50.556284" lon="4.421527"><time>2026-05-02T20:04:43Z</time></trkpt>
</trkseg></trk>
<trk>
<name>hlvrv6</name>
<cmt>r</cmt>
<desc>Rèves Chemin n°6 Rue Wattimez Haut / Chemin de Fontaine-l'Evêque / Rue Luthéal</desc>
<link href="https://chemins.be/reves/chemin/6"/><trkseg>
<trkpt lat="50.556284" lon="4.421527"><time>2026-05-02T20:04:43Z</time></trkpt>
<trkpt lat="50.554136" lon="4.420777"><time>2026-05-02T20:14:43Z</time></trkpt>
<trkpt lat="50.551296" lon="4.418191"><time>2026-05-02T20:24:43Z</time></trkpt>
<trkpt lat="50.549508" lon="4.416581"><time>2026-05-02T20:34:43Z</time></trkpt>
</trkseg></trk>
<trk>
<name>hlvrv6</name>
<cmt>v</cmt>
<desc>Rèves Chemin n°6 Rue Wattimez Haut / Chemin de Fontaine-l'Evêque / Rue Luthéal</desc>
<link href="https://chemins.be/reves/chemin/6"/><trkseg>
<trkpt lat="50.549508" lon="4.416581"><time>2026-05-02T20:34:43Z</time></trkpt>
<trkpt lat="50.548088" lon="4.414985"><time>2026-05-02T20:44:43Z</time></trkpt>
<trkpt lat="50.547325" lon="4.413856"><time>2026-05-02T20:54:43Z</time></trkpt>
<trkpt lat="50.546039" lon="4.412599"><time>2026-05-02T21:04:43Z</time></trkpt>
<trkpt lat="50.545427" lon="4.411824"><time>2026-05-02T21:14:43Z</time></trkpt>
<trkpt lat="50.542958" lon="4.407065"><time>2026-05-02T21:24:43Z</time></trkpt>
<trkpt lat="50.541529" lon="4.405075"><time>2026-05-02T21:34:43Z</time></trkpt>
<trkpt lat="50.541584" lon="4.402183"><time>2026-05-02T21:44:43Z</time></trkpt>
<trkpt lat="50.539446" lon="4.394578"><time>2026-05-02T21:54:43Z</time></trkpt>
<trkpt lat="50.538440" lon="4.392235"><time>2026-05-02T22:04:43Z</time></trkpt>
<trkpt lat="50.537110" lon="4.390006"><time>2026-05-02T22:14:43Z</time></trkpt>
<trkpt lat="50.536714" lon="4.389498"><time>2026-05-02T22:24:43Z</time></trkpt>
<trkpt lat="50.535375" lon="4.389074"><time>2026-05-02T22:34:43Z</time></trkpt>
</trkseg></trk>
<trk>
<name>hlvrv6</name>
<cmt>r</cmt>
<desc>Rèves Chemin n°6 Rue Wattimez Haut / Chemin de Fontaine-l'Evêque / Rue Luthéal</desc>
<link href="https://chemins.be/reves/chemin/6"/><trkseg>
<trkpt lat="50.535375" lon="4.389074"><time>2026-05-02T22:34:43Z</time></trkpt>
<trkpt lat="50.534027" lon="4.385970"><time>2026-05-02T22:44:43Z</time></trkpt>
</trkseg>
</trk>
<trk>
<name>hlvrv60</name>
<cmt>v</cmt>
<desc>Rèves Sentier n°60 </desc>
<link href="https://chemins.be/reves/sentier/60"/><trkseg>
<trkpt lat="50.561859" lon="4.390709"><time>2026-05-02T19:54:43Z</time></trkpt>
<trkpt lat="50.561788" lon="4.389424"><time>2026-05-02T20:04:43Z</time></trkpt>
<trkpt lat="50.561635" lon="4.386785"><time>2026-05-02T20:14:43Z</time></trkpt>
<trkpt lat="50.561276" lon="4.385853"><time>2026-05-02T20:24:43Z</time></trkpt>
</trkseg>
</trk>
<trk>
<name>hlvrv61</name>
<cmt>q</cmt>
<desc>Rèves Sentier n°61 </desc>
<link href="https://chemins.be/reves/sentier/61"/><trkseg>
<trkpt lat="50.555254" lon="4.373588"><time>2026-05-02T19:54:43Z</time></trkpt>
<trkpt lat="50.555820" lon="4.373489"><time>2026-05-02T20:04:43Z</time></trkpt>
</trkseg>
</trk>
<trk>
<name>hlvrv62</name>
<cmt>q</cmt>
<desc>Rèves Sentier n°62 </desc>
<link href="https://chemins.be/reves/sentier/62"/><trkseg>
<trkpt lat="50.552261" lon="4.412901"><time>2026-05-02T19:54:43Z</time></trkpt>
<trkpt lat="50.551397" lon="4.413831"><time>2026-05-02T20:04:43Z</time></trkpt>
</trkseg>
</trk>
<trk>
<name>hlvrv63</name>
<cmt>q</cmt>
<desc>Rèves Sentier n°63 </desc>
<link href="https://chemins.be/reves/sentier/63"/><trkseg>
<trkpt lat="50.550157" lon="4.412165"><time>2026-05-02T19:54:43Z</time></trkpt>
<trkpt lat="50.550417" lon="4.413097"><time>2026-05-02T20:04:43Z</time></trkpt>
<trkpt lat="50.552341" lon="4.414213"><time>2026-05-02T20:14:43Z</time></trkpt>
<trkpt lat="50.553580" lon="4.417206"><time>2026-05-02T20:24:43Z</time></trkpt>
<trkpt lat="50.554057" lon="4.417630"><time>2026-05-02T20:34:43Z</time></trkpt>
<trkpt lat="50.554883" lon="4.419042"><time>2026-05-02T20:44:43Z</time></trkpt>
<trkpt lat="50.555701" lon="4.419254"><time>2026-05-02T20:54:43Z</time></trkpt>
<trkpt lat="50.557723" lon="4.419907"><time>2026-05-02T21:04:43Z</time></trkpt>
<trkpt lat="50.559710" lon="4.421630"><time>2026-05-02T21:14:43Z</time></trkpt>
</trkseg>
</trk>
<trk>
<name>hlvrv65</name>
<cmt>q</cmt>
<desc>Rèves Sentier n°65 </desc>
<link href="https://chemins.be/reves/sentier/65"/><trkseg>
<trkpt lat="50.551406" lon="4.413718"><time>2026-05-02T19:54:43Z</time></trkpt>
<trkpt lat="50.551074" lon="4.412886"><time>2026-05-02T20:04:43Z</time></trkpt>
<trkpt lat="50.551227" lon="4.412603"><time>2026-05-02T20:14:43Z</time></trkpt>
<trkpt lat="50.550750" lon="4.412123"><time>2026-05-02T20:24:43Z</time></trkpt>
<trkpt lat="50.549951" lon="4.409145"><time>2026-05-02T20:34:43Z</time></trkpt>
</trkseg>
</trk>
<trk>
<name>hlvrv66</name>
<cmt>q</cmt>
<desc>Rèves Sentier n°66 </desc>
<link href="https://chemins.be/reves/sentier/66"/><trkseg>
<trkpt lat="50.549390" lon="4.418852"><time>2026-05-02T19:54:43Z</time></trkpt>
<trkpt lat="50.550470" lon="4.417358"><time>2026-05-02T20:04:43Z</time></trkpt>
</trkseg>
</trk>
<trk>
<name>hlvrv67</name>
<cmt>q</cmt>
<desc>Rèves Sentier n°67 </desc>
<link href="https://chemins.be/reves/sentier/67"/><trkseg>
<trkpt lat="50.549267" lon="4.413053"><time>2026-05-02T19:54:43Z</time></trkpt>
<trkpt lat="50.547819" lon="4.414491"><time>2026-05-02T20:04:43Z</time></trkpt>
</trkseg></trk>
<trk>
<name>hlvrv67</name>
<cmt>v</cmt>
<desc>Rèves Sentier n°67 </desc>
<link href="https://chemins.be/reves/sentier/67"/><trkseg>
<trkpt lat="50.547819" lon="4.414491"><time>2026-05-02T20:04:43Z</time></trkpt>
<trkpt lat="50.544374" lon="4.418452"><time>2026-05-02T20:14:43Z</time></trkpt>
<trkpt lat="50.543655" lon="4.418141"><time>2026-05-02T20:24:43Z</time></trkpt>
<trkpt lat="50.542594" lon="4.418182"><time>2026-05-02T20:34:43Z</time></trkpt>
</trkseg></trk>
<trk>
<name>hlvrv67</name>
<cmt>q</cmt>
<desc>Rèves Sentier n°67 </desc>
<link href="https://chemins.be/reves/sentier/67"/><trkseg>
<trkpt lat="50.542594" lon="4.418182"><time>2026-05-02T20:34:43Z</time></trkpt>
<trkpt lat="50.540419" lon="4.416896"><time>2026-05-02T20:44:43Z</time></trkpt>
<trkpt lat="50.539233" lon="4.414624"><time>2026-05-02T20:54:43Z</time></trkpt>
</trkseg>
</trk>
<trk>
<name>hlvrv68</name>
<cmt>q</cmt>
<desc>Rèves Sentier n°68 </desc>
<link href="https://chemins.be/reves/sentier/68"/><trkseg>
<trkpt lat="50.544359" lon="4.409634"><time>2026-05-02T19:54:43Z</time></trkpt>
<trkpt lat="50.547254" lon="4.410060"><time>2026-05-02T20:04:43Z</time></trkpt>
<trkpt lat="50.548278" lon="4.411486"><time>2026-05-02T20:14:43Z</time></trkpt>
</trkseg>
</trk>
<trk>
<name>hlvrv69</name>
<cmt>q</cmt>
<desc>Rèves Sentier n°69 </desc>
<link href="https://chemins.be/reves/sentier/69"/><trkseg>
<trkpt lat="50.542176" lon="4.422784"><time>2026-05-02T19:54:43Z</time></trkpt>
<trkpt lat="50.543441" lon="4.424333"><time>2026-05-02T20:04:43Z</time></trkpt>
<trkpt lat="50.543931" lon="4.424803"><time>2026-05-02T20:14:43Z</time></trkpt>
<trkpt lat="50.543951" lon="4.425623"><time>2026-05-02T20:24:43Z</time></trkpt>
</trkseg>
</trk>
<trk>
<name>hlvrv7</name>
<cmt>r</cmt>
<desc>Rèves Chemin n°7 Rue Revioux</desc>
<link href="https://chemins.be/reves/chemin/7"/><trkseg>
<trkpt lat="50.535903" lon="4.398807"><time>2026-05-02T19:54:43Z</time></trkpt>
<trkpt lat="50.536407" lon="4.398131"><time>2026-05-02T20:04:43Z</time></trkpt>
<trkpt lat="50.537774" lon="4.396298"><time>2026-05-02T20:14:43Z</time></trkpt>
<trkpt lat="50.539383" lon="4.394422"><time>2026-05-02T20:24:43Z</time></trkpt>
</trkseg></trk>
<trk>
<name>hlvrv7</name>
<cmt>v</cmt>
<desc>Rèves Chemin n°7 Rue Revioux</desc>
<link href="https://chemins.be/reves/chemin/7"/><trkseg>
<trkpt lat="50.539383" lon="4.394422"><time>2026-05-02T20:24:43Z</time></trkpt>
<trkpt lat="50.538512" lon="4.392405"><time>2026-05-02T20:34:43Z</time></trkpt>
<trkpt lat="50.538287" lon="4.390980"><time>2026-05-02T20:44:43Z</time></trkpt>
<trkpt lat="50.537398" lon="4.387791"><time>2026-05-02T20:54:43Z</time></trkpt>
<trkpt lat="50.537047" lon="4.386014"><time>2026-05-02T21:04:43Z</time></trkpt>
<trkpt lat="50.536652" lon="4.384659"><time>2026-05-02T21:14:43Z</time></trkpt>
</trkseg>
</trk>
<trk>
<name>hlvrv70</name>
<cmt>q</cmt>
<desc>Rèves Sentier n°70 </desc>
<link href="https://chemins.be/reves/sentier/70"/><trkseg>
<trkpt lat="50.541145" lon="4.421242"><time>2026-05-02T19:54:43Z</time></trkpt>
<trkpt lat="50.541694" lon="4.420326"><time>2026-05-02T20:04:43Z</time></trkpt>
<trkpt lat="50.541182" lon="4.419352"><time>2026-05-02T20:14:43Z</time></trkpt>
<trkpt lat="50.540913" lon="4.418688"><time>2026-05-02T20:24:43Z</time></trkpt>
<trkpt lat="50.540967" lon="4.418561"><time>2026-05-02T20:34:43Z</time></trkpt>
<trkpt lat="50.540652" lon="4.417870"><time>2026-05-02T20:44:43Z</time></trkpt>
<trkpt lat="50.540509" lon="4.416910"><time>2026-05-02T20:54:43Z</time></trkpt>
</trkseg>
</trk>
<trk>
<name>hlvrv71</name>
<cmt>v</cmt>
<desc>Rèves Sentier n°71 </desc>
<link href="https://chemins.be/reves/sentier/71"/><trkseg>
<trkpt lat="50.537885" lon="4.414129"><time>2026-05-02T19:54:43Z</time></trkpt>
<trkpt lat="50.538136" lon="4.414312"><time>2026-05-02T20:04:43Z</time></trkpt>
<trkpt lat="50.538568" lon="4.415018"><time>2026-05-02T20:14:43Z</time></trkpt>
</trkseg>
</trk>
<trk>
<name>hlvrv72</name>
<cmt>q</cmt>
<desc>Rèves Chemin n°72 </desc>
<link href="https://chemins.be/reves/chemin/72"/><trkseg>
<trkpt lat="50.538774" lon="4.417247"><time>2026-05-02T19:54:43Z</time></trkpt>
<trkpt lat="50.539458" lon="4.415061"><time>2026-05-02T20:04:43Z</time></trkpt>
</trkseg>
</trk>
<trk>
<name>hlvrv73</name>
<cmt>q</cmt>
<desc>Rèves Sentier n°73 </desc>
<link href="https://chemins.be/reves/sentier/73"/><trkseg>
<trkpt lat="50.539618" lon="4.419830"><time>2026-05-02T19:54:43Z</time></trkpt>
<trkpt lat="50.539879" lon="4.418278"><time>2026-05-02T20:04:43Z</time></trkpt>
<trkpt lat="50.540185" lon="4.416346"><time>2026-05-02T20:14:43Z</time></trkpt>
</trkseg>
</trk>
<trk>
<name>hlvrv75</name>
<cmt>v</cmt>
<desc>Rèves Sentier n°75 </desc>
<link href="https://chemins.be/reves/sentier/75"/><trkseg>
<trkpt lat="50.540327" lon="4.420592"><time>2026-05-02T19:54:43Z</time></trkpt>
<trkpt lat="50.540885" lon="4.419478"><time>2026-05-02T20:04:43Z</time></trkpt>
</trkseg>
</trk>
<trk>
<name>hlvrv76</name>
<cmt>q</cmt>
<desc>Rèves Sentier n°76 Rue de Bruxelles</desc>
<link href="https://chemins.be/reves/sentier/76"/><trkseg>
<trkpt lat="50.540275" lon="4.412920"><time>2026-05-02T19:54:43Z</time></trkpt>
<trkpt lat="50.540814" lon="4.410215"><time>2026-05-02T20:04:43Z</time></trkpt>
</trkseg></trk>
<trk>
<name>hlvrv76</name>
<cmt>r</cmt>
<desc>Rèves Sentier n°76 Rue de Bruxelles</desc>
<link href="https://chemins.be/reves/sentier/76"/><trkseg>
<trkpt lat="50.540814" lon="4.410215"><time>2026-05-02T20:04:43Z</time></trkpt>
<trkpt lat="50.541183" lon="4.409646"><time>2026-05-02T20:14:43Z</time></trkpt>
</trkseg></trk>
<trk>
<name>hlvrv76</name>
<cmt>q</cmt>
<desc>Rèves Sentier n°76 Rue de Bruxelles</desc>
<link href="https://chemins.be/reves/sentier/76"/><trkseg>
<trkpt lat="50.541183" lon="4.409646"><time>2026-05-02T20:14:43Z</time></trkpt>
<trkpt lat="50.541616" lon="4.406573"><time>2026-05-02T20:24:43Z</time></trkpt>
</trkseg>
</trk>
<trk>
<name>hlvrv77</name>
<cmt>q</cmt>
<desc>Rèves Chemin n°77 </desc>
<link href="https://chemins.be/reves/chemin/77"/><trkseg>
<trkpt lat="50.532797" lon="4.412287"><time>2026-05-02T19:54:43Z</time></trkpt>
<trkpt lat="50.536392" lon="4.412827"><time>2026-05-02T20:04:43Z</time></trkpt>
<trkpt lat="50.537993" lon="4.410406"><time>2026-05-02T20:14:43Z</time></trkpt>
<trkpt lat="50.539956" lon="4.407563"><time>2026-05-02T20:24:43Z</time></trkpt>
<trkpt lat="50.541592" lon="4.406590"><time>2026-05-02T20:34:43Z</time></trkpt>
<trkpt lat="50.541992" lon="4.405789"><time>2026-05-02T20:44:43Z</time></trkpt>
</trkseg>
</trk>
<trk>
<name>hlvrv78</name>
<cmt>r</cmt>
<desc>Rèves Chemin n°78 Rue Questienne</desc>
<link href="https://chemins.be/reves/chemin/78"/><trkseg>
<trkpt lat="50.537512" lon="4.414600"><time>2026-05-02T19:54:43Z</time></trkpt>
<trkpt lat="50.537187" lon="4.414131"><time>2026-05-02T20:04:43Z</time></trkpt>
</trkseg></trk>
<trk>
<name>hlvrv78</name>
<cmt>q</cmt>
<desc>Rèves Chemin n°78 Rue Questienne</desc>
<link href="https://chemins.be/reves/chemin/78"/><trkseg>
<trkpt lat="50.537187" lon="4.414131"><time>2026-05-02T20:04:43Z</time></trkpt>
<trkpt lat="50.536374" lon="4.412799"><time>2026-05-02T20:14:43Z</time></trkpt>
<trkpt lat="50.534846" lon="4.409194"><time>2026-05-02T20:24:43Z</time></trkpt>
</trkseg>
</trk>
<trk>
<name>hlvrv81</name>
<cmt>r</cmt>
<desc>Rèves Sentier n°81 </desc>
<link href="https://chemins.be/reves/sentier/81"/><trkseg>
<trkpt lat="50.535920" lon="4.421233"><time>2026-05-02T19:54:43Z</time></trkpt>
<trkpt lat="50.535260" lon="4.420993"><time>2026-05-02T20:04:43Z</time></trkpt>
</trkseg></trk>
<trk>
<name>hlvrv81</name>
<cmt>q</cmt>
<desc>Rèves Sentier n°81 </desc>
<link href="https://chemins.be/reves/sentier/81"/><trkseg>
<trkpt lat="50.535260" lon="4.420993"><time>2026-05-02T20:04:43Z</time></trkpt>
<trkpt lat="50.535260" lon="4.420993"><time>2026-05-02T20:14:43Z</time></trkpt>
<trkpt lat="50.534190" lon="4.419803"><time>2026-05-02T20:24:43Z</time></trkpt>
<trkpt lat="50.534200" lon="4.419813"><time>2026-05-02T20:34:43Z</time></trkpt>
<trkpt lat="50.533928" lon="4.419982"><time>2026-05-02T20:44:43Z</time></trkpt>
<trkpt lat="50.532460" lon="4.419813"><time>2026-05-02T20:54:43Z</time></trkpt>
<trkpt lat="50.528900" lon="4.420173"><time>2026-05-02T21:04:43Z</time></trkpt>
</trkseg>
</trk>
<trk>
<name>hlvrv83</name>
<cmt>q</cmt>
<desc>Rèves Sentier n°83 </desc>
<link href="https://chemins.be/reves/sentier/83"/><trkseg>
<trkpt lat="50.533124" lon="4.419030"><time>2026-05-02T19:54:43Z</time></trkpt>
<trkpt lat="50.533929" lon="4.419996"><time>2026-05-02T20:04:43Z</time></trkpt>
</trkseg>
</trk>
<trk>
<name>hlvrv84</name>
<cmt>q</cmt>
<desc>Rèves Sentier n°84 </desc>
<link href="https://chemins.be/reves/sentier/84"/><trkseg>
<trkpt lat="50.544711" lon="4.395342"><time>2026-05-02T19:54:43Z</time></trkpt>
<trkpt lat="50.543905" lon="4.395364"><time>2026-05-02T20:04:43Z</time></trkpt>
<trkpt lat="50.542575" lon="4.396888"><time>2026-05-02T20:14:43Z</time></trkpt>
<trkpt lat="50.540577" lon="4.398604"><time>2026-05-02T20:24:43Z</time></trkpt>
<trkpt lat="50.538872" lon="4.401662"><time>2026-05-02T20:34:43Z</time></trkpt>
<trkpt lat="50.537499" lon="4.403351"><time>2026-05-02T20:44:43Z</time></trkpt>
</trkseg>
</trk>
<trk>
<name>hlvrv85</name>
<cmt>v</cmt>
<desc>Rèves Sentier n°85 </desc>
<link href="https://chemins.be/reves/sentier/85"/><trkseg>
<trkpt lat="50.536197" lon="4.405255"><time>2026-05-02T19:54:43Z</time></trkpt>
<trkpt lat="50.535910" lon="4.404558"><time>2026-05-02T20:04:43Z</time></trkpt>
<trkpt lat="50.535017" lon="4.401339"><time>2026-05-02T20:14:43Z</time></trkpt>
<trkpt lat="50.534407" lon="4.400287"><time>2026-05-02T20:24:43Z</time></trkpt>
</trkseg></trk>
<trk>
<name>hlvrv85</name>
<cmt>q</cmt>
<desc>Rèves Sentier n°85 </desc>
<link href="https://chemins.be/reves/sentier/85"/><trkseg>
<trkpt lat="50.534407" lon="4.400287"><time>2026-05-02T20:24:43Z</time></trkpt>
<trkpt lat="50.535594" lon="4.398766"><time>2026-05-02T20:34:43Z</time></trkpt>
<trkpt lat="50.535775" lon="4.398809"><time>2026-05-02T20:44:43Z</time></trkpt>
<trkpt lat="50.535468" lon="4.394812"><time>2026-05-02T20:54:43Z</time></trkpt>
<trkpt lat="50.536027" lon="4.389409"><time>2026-05-02T21:04:43Z</time></trkpt>
<trkpt lat="50.536177" lon="4.388401"><time>2026-05-02T21:14:43Z</time></trkpt>
</trkseg>
</trk>
<trk>
<name>hlvrv86</name>
<cmt>q</cmt>
<desc>Rèves Sentier n°86 </desc>
<link href="https://chemins.be/reves/sentier/86"/><trkseg>
<trkpt lat="50.536394" lon="4.400641"><time>2026-05-02T19:54:43Z</time></trkpt>
<trkpt lat="50.535324" lon="4.401650"><time>2026-05-02T20:04:43Z</time></trkpt>
</trkseg>
</trk>
<trk>
<name>hlvrv87</name>
<cmt>q</cmt>
<desc>Rèves Sentier n°87 </desc>
<link href="https://chemins.be/reves/sentier/87"/><trkseg>
<trkpt lat="50.530311" lon="4.398520"><time>2026-05-02T19:54:43Z</time></trkpt>
<trkpt lat="50.532050" lon="4.399089"><time>2026-05-02T20:04:43Z</time></trkpt>
<trkpt lat="50.532193" lon="4.398960"><time>2026-05-02T20:14:43Z</time></trkpt>
<trkpt lat="50.534852" lon="4.399664"><time>2026-05-02T20:24:43Z</time></trkpt>
</trkseg>
</trk>
<trk>
<name>hlvrv88</name>
<cmt>q</cmt>
<desc>Rèves Sentier n°88 </desc>
<link href="https://chemins.be/reves/sentier/88"/><trkseg>
<trkpt lat="50.527655" lon="4.398838"><time>2026-05-02T19:54:43Z</time></trkpt>
<trkpt lat="50.528501" lon="4.400383"><time>2026-05-02T20:04:43Z</time></trkpt>
<trkpt lat="50.531693" lon="4.402572"><time>2026-05-02T20:14:43Z</time></trkpt>
</trkseg>
</trk>
<trk>
<name>hlvrv89</name>
<cmt>b</cmt>
<desc>Rèves Sentier n°89 </desc>
<link href="https://chemins.be/reves/sentier/89"/><trkseg>
<trkpt lat="50.527155" lon="4.399577"><time>2026-05-02T19:54:43Z</time></trkpt>
<trkpt lat="50.527030" lon="4.399549"><time>2026-05-02T20:04:43Z</time></trkpt>
<trkpt lat="50.525223" lon="4.398109"><time>2026-05-02T20:14:43Z</time></trkpt>
</trkseg>
</trk>
<trk>
<name>hlvrv9</name>
<cmt>q</cmt>
<desc>Rèves Chemin n°9 </desc>
<link href="https://chemins.be/reves/chemin/9"/><trkseg>
<trkpt lat="50.552169" lon="4.416358"><time>2026-05-02T19:54:43Z</time></trkpt>
<trkpt lat="50.553625" lon="4.417262"><time>2026-05-02T20:04:43Z</time></trkpt>
<trkpt lat="50.553310" lon="4.419167"><time>2026-05-02T20:14:43Z</time></trkpt>
<trkpt lat="50.553058" lon="4.419590"><time>2026-05-02T20:24:43Z</time></trkpt>
</trkseg>
</trk>
<trk>
<name>hlvrv90</name>
<cmt>q</cmt>
<desc>Rèves Sentier n°90 </desc>
<link href="https://chemins.be/reves/sentier/90"/><trkseg>
<trkpt lat="50.528546" lon="4.397520"><time>2026-05-02T19:54:43Z</time></trkpt>
<trkpt lat="50.528300" lon="4.395395"><time>2026-05-02T20:04:43Z</time></trkpt>
<trkpt lat="50.526827" lon="4.391919"><time>2026-05-02T20:14:43Z</time></trkpt>
</trkseg>
</trk>
<trk>
<name>hlvrv91</name>
<cmt>q</cmt>
<desc>Rèves Sentier n°91 </desc>
<link href="https://chemins.be/reves/sentier/91"/><trkseg>
<trkpt lat="50.528768" lon="4.391991"><time>2026-05-02T19:54:43Z</time></trkpt>
<trkpt lat="50.529593" lon="4.391572"><time>2026-05-02T20:04:43Z</time></trkpt>
<trkpt lat="50.531066" lon="4.392055"><time>2026-05-02T20:14:43Z</time></trkpt>
<trkpt lat="50.532731" lon="4.393147"><time>2026-05-02T20:24:43Z</time></trkpt>
<trkpt lat="50.533256" lon="4.393941"><time>2026-05-02T20:34:43Z</time></trkpt>
</trkseg>
</trk>
<trk>
<name>hlvrv92</name>
<cmt>q</cmt>
<desc>Rèves Sentier n°92 </desc>
<link href="https://chemins.be/reves/sentier/92"/><trkseg>
<trkpt lat="50.530475" lon="4.387986"><time>2026-05-02T19:54:43Z</time></trkpt>
<trkpt lat="50.530160" lon="4.392584"><time>2026-05-02T20:04:43Z</time></trkpt>
<trkpt lat="50.530330" lon="4.394756"><time>2026-05-02T20:14:43Z</time></trkpt>
</trkseg>
</trk>
<trk>
<name>hlvrv93</name>
<cmt>q</cmt>
<desc>Rèves Sentier n°93 </desc>
<link href="https://chemins.be/reves/sentier/93"/><trkseg>
<trkpt lat="50.530493" lon="4.388056"><time>2026-05-02T19:54:43Z</time></trkpt>
<trkpt lat="50.532578" lon="4.393248"><time>2026-05-02T20:04:43Z</time></trkpt>
</trkseg>
</trk>
<trk>
<name>hlvrv94</name>
<cmt>q</cmt>
<desc>Rèves Sentier n°94 </desc>
<link href="https://chemins.be/reves/sentier/94"/><trkseg>
<trkpt lat="50.530383" lon="4.398581"><time>2026-05-02T19:54:43Z</time></trkpt>
<trkpt lat="50.530997" lon="4.400104"><time>2026-05-02T20:04:43Z</time></trkpt>
</trkseg>
</trk>
<trk>
<name>hlvrvi2</name>
<cmt>r</cmt>
<desc>Rèves Chemin n°i2 Ruelle de la Meunerie</desc>
<link href="https://chemins.be/reves/chemin/i2"/><trkseg>
<trkpt lat="50.551102" lon="4.395949"><time>2026-05-02T19:54:43Z</time></trkpt>
<trkpt lat="50.550799" lon="4.394973"><time>2026-05-02T20:04:43Z</time></trkpt>
</trkseg>
</trk>
<trk>
<name>hlvrvi3</name>
<cmt>q</cmt>
<desc>Rèves Chemin n°i3 </desc>
<link href="https://chemins.be/reves/chemin/i3"/><trkseg>
<trkpt lat="50.544424" lon="4.404682"><time>2026-05-02T19:54:43Z</time></trkpt>
<trkpt lat="50.543921" lon="4.404103"><time>2026-05-02T20:04:43Z</time></trkpt>
</trkseg>
</trk>
<trk>
<name>hlvrvi4</name>
<cmt>q</cmt>
<desc>Rèves Chemin n°i4 </desc>
<link href="https://chemins.be/reves/chemin/i4"/><trkseg>
<trkpt lat="50.552261" lon="4.412901"><time>2026-05-02T19:54:43Z</time></trkpt>
<trkpt lat="50.553313" lon="4.412196"><time>2026-05-02T20:04:43Z</time></trkpt>
<trkpt lat="50.554113" lon="4.411703"><time>2026-05-02T20:14:43Z</time></trkpt>
</trkseg>
</trk>
<trk>
<name>hlvrvi5</name>
<cmt>v</cmt>
<desc>Rèves Sentier n°i5 </desc>
<link href="https://chemins.be/reves/sentier/i5"/><trkseg>
<trkpt lat="50.541774" lon="4.421497"><time>2026-05-02T19:54:43Z</time></trkpt>
<trkpt lat="50.541648" lon="4.421722"><time>2026-05-02T20:04:43Z</time></trkpt>
</trkseg>
</trk>
<trk>
<name>hlvrvi6</name>
<cmt>v</cmt>
<desc>Rèves Sentier n°i6 </desc>
<link href="https://chemins.be/reves/sentier/i6"/><trkseg>
<trkpt lat="50.530251" lon="4.395345"><time>2026-05-02T19:54:43Z</time></trkpt>
<trkpt lat="50.533279" lon="4.398556"><time>2026-05-02T20:04:43Z</time></trkpt>
<trkpt lat="50.534361" lon="4.400294"><time>2026-05-02T20:14:43Z</time></trkpt>
</trkseg>
</trk>
<trk>
<name>hlvrvi7</name>
<cmt>v</cmt>
<desc>Rèves Chemin n°i7 </desc>
<link href="https://chemins.be/reves/chemin/i7"/><trkseg>
<trkpt lat="50.554616" lon="4.411732"><time>2026-05-02T19:54:43Z</time></trkpt>
<trkpt lat="50.554716" lon="4.410504"><time>2026-05-02T20:04:43Z</time></trkpt>
</trkseg>
</trk>
<trk>
<name>hlvrvL131A</name>
<cmt>q</cmt>
<desc>Rèves Chemin n°L131A Ligne 131</desc>
<link href="https://chemins.be/reves/chemin/L131A"/><trkseg>
<trkpt lat="50.559344" lon="4.377822"><time>2026-05-02T19:54:43Z</time></trkpt>
<trkpt lat="50.558750" lon="4.381957"><time>2026-05-02T20:04:43Z</time></trkpt>
<trkpt lat="50.557265" lon="4.390580"><time>2026-05-02T20:14:43Z</time></trkpt>
<trkpt lat="50.556320" lon="4.398171"><time>2026-05-02T20:24:43Z</time></trkpt>
<trkpt lat="50.555257" lon="4.406257"><time>2026-05-02T20:34:43Z</time></trkpt>
<trkpt lat="50.554446" lon="4.411760"><time>2026-05-02T20:44:43Z</time></trkpt>
</trkseg></trk>
<trk>
<name>hlvrvL131A</name>
<cmt>v</cmt>
<desc>Rèves Chemin n°L131A Ligne 131</desc>
<link href="https://chemins.be/reves/chemin/L131A"/><trkseg>
<trkpt lat="50.554446" lon="4.411760"><time>2026-05-02T20:44:43Z</time></trkpt>
<trkpt lat="50.553418" lon="4.419111"><time>2026-05-02T20:54:43Z</time></trkpt>
<trkpt lat="50.553094" lon="4.420380"><time>2026-05-02T21:04:43Z</time></trkpt>
</trkseg>
</trk>
<trk>
<name>hlvrvr1</name>
<cmt>d</cmt>
<desc>Rèves Chemin de remembrement n°r1 </desc>
<link href="https://chemins.be/reves/chemin/r1"/><trkseg>
<trkpt lat="50.555164" lon="4.373760"><time>2026-05-02T19:54:43Z</time></trkpt>
<trkpt lat="50.556098" lon="4.375530"><time>2026-05-02T20:04:43Z</time></trkpt>
</trkseg>
</trk>
<trk>
<name>hlvrvr2</name>
<cmt>v</cmt>
<desc>Rèves Chemin de remembrement n°r2 </desc>
<link href="https://chemins.be/reves/chemin/r2"/><trkseg>
<trkpt lat="50.557879" lon="4.378655"><time>2026-05-02T19:54:43Z</time></trkpt>
<trkpt lat="50.558058" lon="4.379191"><time>2026-05-02T20:04:43Z</time></trkpt>
<trkpt lat="50.558211" lon="4.379770"><time>2026-05-02T20:14:43Z</time></trkpt>
<trkpt lat="50.558337" lon="4.380546"><time>2026-05-02T20:24:43Z</time></trkpt>
<trkpt lat="50.558570" lon="4.381590"><time>2026-05-02T20:34:43Z</time></trkpt>
<trkpt lat="50.558588" lon="4.381788"><time>2026-05-02T20:44:43Z</time></trkpt>
<trkpt lat="50.558741" lon="4.382014"><time>2026-05-02T20:54:43Z</time></trkpt>
<trkpt lat="50.558966" lon="4.382310"><time>2026-05-02T21:04:43Z</time></trkpt>
<trkpt lat="50.559325" lon="4.382635"><time>2026-05-02T21:14:43Z</time></trkpt>
</trkseg>
</trk>
</gpx>